Effective Sunday, March 17, 2024, the National Weather Service National Data Buoy Center will discontinue its Dial-A-Buoy Interactive Voice Response system. For more information, see Service Change Notice 24-06 (PDF).

Station RSJT2 - 8777812 - Rincon del San Jose, TX Image indicating link to RSS feed of recent meteorological observations for station RSJT2


Conditions at RSJT2 as of
(3:48 pm CST)
2148 GMT on 03/03/2024:
     

Click on the graph icon in the table below to see a time series plot of the last five days of that observation.

5-day plot - Wind Direction Wind Direction (WDIR): SE ( 130 deg true )
5-day plot - Wind Speed Wind Speed (WSPD): 15.9 kts
5-day plot - Wind Gust Wind Gust (GST): 18.1 kts
5-day plot - Atmospheric Pressure Atmospheric Pressure (PRES):29.79 in
5-day plot - Air Temperature Air Temperature (ATMP): 74.5 °F
5-day plot - Water Temperature Water Temperature (WTMP): 73.4 °F
5-day plot - Wind Speed at 10 Meters Wind Speed at 10 meters (WSPD10M): 15.5 kts
5-day plot - Wind Speed at 20 Meters Wind Speed at 20 meters (WSPD20M): 17.5 kts
5-day plot -  Wind Speed, Wind Gust and Atmospheric Pressure Combined plot of Wind Speed, Gust, and Air Pressure
Previous observations
TIME
(CST)
5-day plot - Wind Direction
WDIR
 
5-day plot - Wind Speed
WSPD
kts
5-day plot - Wind Gust
GST
kts
5-day plot - Wave Height
WVHT
ft
5-day plot - Dominant Wave Period
DPD
sec
5-day plot - Average Wave Period
APD
sec
5-day plot - Mean Wave Direction
MWD
 
5-day plot - Atmospheric Pressure
PRES
in
5-day plot - Pressure Tendency
PTDY
in
5-day plot - Air Temperature
ATMP
°F
5-day plot - Water Temperature
WTMP
°F
5-day plot - Dew Point
DEWP
°F
5-day plot - Salinity
SAL
psu
5-day plot - Visibility
VIS
nmi
5-day plot - Tide (above MLLW)
TIDE
ft
2024-03-03 03:42 pm SE 15.9 18.1----29.79- 74.7 73.6----
2024-03-03 03:36 pm SE 15.0 18.1----29.79- 74.5 73.6----
2024-03-03 03:30 pm SE 15.0 18.1----29.79-- 73.6----
2024-03-03 03:24 pm SE 17.1 20.0----29.80-- 73.4----
2024-03-03 03:18 pm SE 15.0 19.0----29.80- 73.9 73.4----
2024-03-03 03:12 pm SE 15.9 18.1----29.80- 74.1 73.2----
2024-03-03 03:06 pm SE 15.9 19.0----29.80- 73.9 73.0----
2024-03-03 03:00 pm SE 14.0 15.9----29.80-0.08- 72.9----
2024-03-03 02:54 pm SE 14.0 15.9----29.80-- 72.9----
2024-03-03 02:48 pm SE 14.0 17.1----29.80- 73.6 72.7----
2024-03-03 02:42 pm SE 15.0 17.1----29.80- 73.6 72.7----
2024-03-03 02:36 pm SE 13.0 15.0----29.81- 73.9 72.7----
2024-03-03 02:30 pm--------- 73.9 72.9----
2024-03-03 02:24 pm--------- 74.3 72.9----
2024-03-03 02:18 pm SE 12.0 13.0----29.80- 74.3 72.9----
2024-03-03 02:12 pm SE 11.1 14.0----29.80- 74.1 72.9----
2024-03-03 02:06 pm SE 11.1 14.0----29.81- 74.3 72.9----
2024-03-03 02:00 pm SE 11.1 14.0----29.81-0.08 73.9-----
2024-03-03 01:54 pmSSE 14.0 15.9----29.81- 74.1-----
2024-03-03 01:48 pm SE 13.0 15.9----29.81- 73.9 72.5----
2024-03-03 01:42 pm SE 13.0 17.1----29.82- 73.8 72.5----
2024-03-03 01:36 pm SE 15.9 17.1----29.82- 73.8 72.5----
2024-03-03 01:30 pm SE 14.0 15.9----29.82-- 72.3----
2024-03-03 01:24 pm SE 13.0 15.9----29.83-- 72.1----
2024-03-03 01:18 pm SE 14.0 17.1----29.83-------
2024-03-03 01:12 pm SE 13.0 15.9----29.83-------
2024-03-03 01:06 pm SE 14.0 15.9----29.83-------
2024-03-03 01:00 pm SE 13.0 17.1----29.84-0.06- 71.8----
2024-03-03 12:54 pm SE 13.0 15.9----29.84-- 71.8----
2024-03-03 12:48 pm--------- 72.7-----
2024-03-03 12:42 pm--------- 73.0-----
2024-03-03 12:36 pm--------- 72.5-----
2024-03-03 12:30 pm SE 12.0 14.0----29.86- 72.3 71.6----
2024-03-03 12:24 pm SE 13.0 17.1----29.87- 72.3 71.4----
2024-03-03 12:18 pm SE 13.0 15.0----29.87- 72.3 71.4----
2024-03-03 12:12 pm SE 12.0 14.0----29.87- 72.1 71.4----
2024-03-03 12:06 pm SE 12.0 14.0----29.88- 72.3 71.4----
2024-03-03 12:00 pm SE 12.0 13.0----29.88-0.01 72.3 71.2----
2024-03-03 11:54 am SE 13.0 15.0----29.88- 72.1 71.1----
2024-03-03 11:48 am SE 12.0 15.9----29.88- 72.3 71.1----
2024-03-03 11:42 am SE 12.0 15.0----29.88- 72.1 70.9----
2024-03-03 11:36 am SE 11.1 13.0----29.89- 71.8 70.9----
2024-03-03 11:30 am SE 11.1 13.0----29.89- 71.8 70.7----
2024-03-03 11:24 am SE 11.1 13.0----29.88- 71.6 70.7----
2024-03-03 11:18 am SE 11.1 13.0----29.88-- 70.5----
2024-03-03 11:12 am SE 11.1 13.0----29.89-- 70.5----
2024-03-03 11:06 am SE 11.1 12.0----29.89-- 70.3----
2024-03-03 11:00 am SE 9.9 13.0----29.89-- 70.3----
2024-03-03 10:54 am SE 12.0 14.0----29.89-- 70.3----
2024-03-03 10:48 am SE 9.9 12.0----29.90- 71.1 70.2----
2024-03-03 10:42 am SE 8.9 11.1----29.90- 70.5 70.2----
2024-03-03 10:36 am SE 8.9 11.1----29.90- 69.8 70.2----
2024-03-03 10:30 am SE 8.9 9.9----29.90- 69.4 70.2----
2024-03-03 10:24 am SE 8.9 11.1----29.90- 69.1 70.2----
2024-03-03 10:18 am SE 9.9 11.1----29.90- 68.9 70.2----
2024-03-03 10:12 am SE 9.9 11.1----29.90- 68.7 70.2----
2024-03-03 10:06 am SE 8.0 9.9----29.90- 68.5 70.2----
2024-03-03 10:00 am SE 8.0 9.9----29.90+0.04 68.4 70.2----
2024-03-03 09:54 amESE 9.9 11.1----29.90- 68.2 70.0----
2024-03-03 09:48 amESE 8.9 9.9----29.90- 68.2 70.0----
2024-03-03 09:42 amESE 8.9 9.9----29.90- 68.2 70.0----
2024-03-03 09:36 amESE 9.9 11.1----29.89- 68.0 70.0----
2024-03-03 09:30 amESE 9.9 11.1----29.89- 68.0 70.0----
2024-03-03 09:24 am SE 9.9 11.1----29.89- 67.8 70.0----
2024-03-03 09:18 amESE 8.0 9.9----29.89- 67.5 69.8----
2024-03-03 09:12 amESE 8.0 9.9----29.89- 67.5 69.8----
2024-03-03 09:06 am SE 7.0 8.9----29.89- 67.5 69.8----
2024-03-03 09:00 am SE 7.0 8.0----29.89+0.04 67.3 69.8----
2024-03-03 08:54 am SE 6.0 8.9----29.88- 67.1 69.8----
2024-03-03 08:48 am SE 7.0 8.9----29.88- 66.9 69.6----
2024-03-03 08:42 am SE 7.0 8.0----29.88- 66.7 69.6----
2024-03-03 08:36 am SE 7.0 8.0----29.89- 66.7 69.6----
2024-03-03 08:30 am SE 6.0 8.0----29.89-------
2024-03-03 08:24 am SE 6.0 8.0----29.89-------
2024-03-03 08:18 amESE 7.0 8.0----29.88-- 69.6----
2024-03-03 08:12 amESE 6.0 8.0----29.88-- 69.6----
2024-03-03 08:06 amESE 6.0 8.0----29.88-- 69.6----
2024-03-03 08:00 amESE 7.0 8.0------ 66.0 69.6----
2024-03-03 07:54 amESE 8.0 8.9------ 66.0 69.6----
2024-03-03 07:48 amESE 7.0 8.9----29.87-- 69.6----
2024-03-03 07:42 amESE 7.0 8.0----29.87-- 69.6----
2024-03-03 07:36 am SE 7.0 8.0----29.87-- 69.6----
2024-03-03 07:30 am SE 7.0 7.0----29.87-- 69.6----
2024-03-03 07:24 am SE 6.0 7.0----29.87-- 69.6----
2024-03-03 07:18 am SE 7.0 8.0----29.87- 66.0 69.6----
2024-03-03 07:12 amESE 7.0 7.0----29.86- 65.7 69.6----
2024-03-03 07:06 amESE 6.0 8.0----29.87- 65.7 69.6----
2024-03-03 07:00 amESE 7.0 7.0----29.87+0.01 65.7-----
2024-03-03 06:54 amESE 6.0 7.0----29.86- 65.5-----
2024-03-03 06:48 amESE 7.0 8.0----29.86-- 69.6----
2024-03-03 06:42 amESE 7.0 8.9----29.86-- 69.6----
2024-03-03 06:36 am E 7.0 8.0----29.86-- 69.8----
2024-03-03 06:30 am---------- 69.8----
2024-03-03 06:24 am---------- 69.8----
2024-03-03 06:18 amESE 7.0 8.0----29.86- 65.8 69.8----
2024-03-03 06:12 amESE 7.0 8.0----29.85- 65.7 69.8----
2024-03-03 06:06 amESE 7.0 8.9----29.85- 65.5 69.8----
2024-03-03 06:00 amESE 7.0 8.9----29.85-0.01 65.7 69.6----
2024-03-03 05:54 amESE 8.0 8.9----29.85- 65.5 69.8----
2024-03-03 05:48 amESE 7.0 8.0----29.85- 65.5 69.8----
2024-03-03 05:42 amESE 6.0 8.9----29.85- 66.0 69.8----
2024-03-03 05:36 am SE 7.0 8.9----29.85- 66.0 69.8----
2024-03-03 05:30 am SE 7.0 8.9----29.85- 66.2 69.8----
2024-03-03 05:24 am SE 8.0 9.9----29.85- 66.0 69.8----
2024-03-03 05:18 am SE 8.0 8.9----29.84- 66.0 69.8----
2024-03-03 05:12 am SE 8.0 9.9----29.84- 65.7 69.8----
2024-03-03 05:06 amESE 8.9 9.9----29.84- 65.8 69.8----
2024-03-03 05:00 amESE 8.9 9.9----29.84-0.05- 69.8----
2024-03-03 04:54 amESE 8.0 8.9----29.84-- 69.8----
2024-03-03 04:48 amESE 8.0 8.9----29.84- 66.2 69.8----
2024-03-03 04:42 am SE 7.0 8.0----29.84- 66.2 69.8----
2024-03-03 04:36 am SE 7.0 8.0----29.84- 66.6 69.8----
2024-03-03 04:30 am SE 7.0 8.0----29.84- 66.6 69.8----
2024-03-03 04:24 am SE 7.0 8.0----29.84- 66.4 69.8----
2024-03-03 04:18 am SE 8.0 8.9----29.85- 66.4 69.8----
2024-03-03 04:12 am SE 7.0 8.0----29.85- 66.6 69.8----
2024-03-03 04:06 am SE 6.0 8.0----29.85- 66.7 69.8----
2024-03-03 04:00 am SE 6.0 7.0----29.85-0.06 66.7 70.0----
2024-03-03 03:54 am SE 6.0 7.0----29.85- 66.9 70.0----
2024-03-03 03:48 am SE 5.1 7.0----29.85- 66.9 70.0----
2024-03-03 03:42 am SE 5.1 6.0----29.85- 66.9 70.0----
2024-03-03 03:36 am SE 5.1 6.0----29.85- 66.9 70.0----
2024-03-03 03:30 amSSE 5.1 6.0----29.86- 66.7 70.0----
2024-03-03 03:24 amSSE 5.1 5.1----29.86- 66.7 70.0----
2024-03-03 03:18 amSSE 5.1 5.1----29.86- 66.6 70.0----
2024-03-03 03:12 amSSE 4.1 4.1----29.86- 66.6 70.0----
2024-03-03 03:06 amSSE 2.9 4.1----29.86- 66.6 70.0----
2024-03-03 03:00 amSSE 4.1 5.1----29.86-0.06 66.4 70.0----
2024-03-03 02:54 amSSE 4.1 5.1----29.87- 66.4 70.0----
2024-03-03 02:48 amSSE 4.1 5.1----29.87- 66.4 70.0----
2024-03-03 02:42 am SE 5.1 6.0----29.87- 66.6 70.0----
2024-03-03 02:36 am SE 4.1 5.1----29.88- 66.2 70.0----
2024-03-03 02:30 amSSE 5.1 6.0----29.88- 66.2 70.0----
2024-03-03 02:24 am S 5.1 6.0----29.88- 66.2 70.0----
2024-03-03 02:18 amSSE 6.0 7.0----29.88- 66.2 70.0----
2024-03-03 02:12 amSSE 6.0 7.0----29.88- 66.2 70.0----
2024-03-03 02:06 amSSE 6.0 8.0----29.88- 66.4 70.0----
2024-03-03 02:00 am S 6.0 8.0----29.89-0.05 66.4 70.0----
2024-03-03 01:54 am S 7.0 8.9----29.89- 66.4 70.0----
2024-03-03 01:48 amSSE 8.0 8.9----29.89- 66.4 70.0----
2024-03-03 01:42 amSSE 8.0 8.9----29.89- 66.4 70.0----
2024-03-03 01:36 amSSE 8.0 8.9----29.90- 66.6 70.2----
2024-03-03 01:30 am S 7.0 8.0----29.91- 66.7 70.2----
2024-03-03 01:24 am S 8.0 8.9----29.91- 66.7 70.2----
2024-03-03 01:18 am S 8.9 9.9----29.91- 66.7 70.2----
2024-03-03 01:12 am S 8.9 11.1----29.91- 66.7 70.2----
2024-03-03 01:06 am S 9.9 11.1----29.91- 67.1 70.2----
2024-03-03 01:00 am S 9.9 11.1----29.91-0.03 67.1 70.2----
2024-03-03 12:54 am S 9.9 9.9----29.91- 66.9 70.2----
2024-03-03 12:48 am S 7.0 7.0----29.92- 67.1 70.2----
2024-03-03 12:42 am S 7.0 9.9----29.92- 67.1 70.2----
2024-03-03 12:36 amSSE 8.0 8.9----29.92- 67.5 70.2----
2024-03-03 12:30 am S 7.0 8.0----29.92- 67.3 70.2----
2024-03-03 12:24 amSSE 8.9 9.9----29.92- 67.5 70.2----
2024-03-03 12:18 amSSE 8.9 9.9----29.92- 67.6 70.2----
2024-03-03 12:12 amSSE 7.0 11.1----29.92- 67.5 70.2----
2024-03-03 12:06 amSSE 11.1 12.0----29.92- 67.8 70.2----
2024-03-03 12:00 amSSE 8.0 8.9----29.92-0.02 67.6 70.2----
2024-03-02 11:54 pmSSE 8.0 8.9----29.92- 67.5 70.2----
2024-03-02 11:48 pmSSE 7.0 8.0----29.92- 67.6 70.2----
2024-03-02 11:42 pmSSE 7.0 8.9----29.93- 67.8 70.2----
2024-03-02 11:36 pmSSE 8.0 9.9----29.93- 67.8 70.2----
2024-03-02 11:30 pmSSE 8.9 12.0----29.93- 67.8 70.2----
2024-03-02 11:24 pmSSE 11.1 12.0----29.93- 68.0 70.2----
2024-03-02 11:18 pmSSE 11.1 13.0----29.93- 68.0 70.2----
2024-03-02 11:12 pmSSE 11.1 13.0----29.93- 68.2 70.0----
2024-03-02 11:06 pmSSE 8.9 9.9----29.93- 68.2 70.0----
2024-03-02 11:00 pm SE 8.9 12.0----29.93+0.00 68.2 70.0----
2024-03-02 10:54 pm SE 11.1 12.0----29.93- 68.2 70.0----
2024-03-02 10:48 pm SE 8.9 12.0----29.93- 68.4 70.0----
2024-03-02 10:42 pm SE 9.9 11.1----29.94- 68.4 70.0----
2024-03-02 10:36 pm SE 9.9 12.0----29.94- 68.2 70.0----
2024-03-02 10:30 pm SE 9.9 12.0----29.94- 68.2 70.0----
2024-03-02 10:24 pm SE 8.9 12.0----29.94- 68.4 69.8----
2024-03-02 10:18 pm SE 8.9 9.9----29.94- 68.2 69.8----
2024-03-02 10:12 pm SE 8.9 9.9----29.94- 68.2 69.8----
2024-03-02 10:06 pmESE 9.9 11.1----29.94- 68.0 69.8----
2024-03-02 10:00 pm SE 8.9 9.9----29.94+0.02 68.2 69.8----
2024-03-02 09:54 pm SE 8.0 11.1----29.94- 68.2 69.8----
2024-03-02 09:48 pm SE 9.9 11.1----29.94- 68.2 69.8----
2024-03-02 09:42 pm SE 7.0 9.9----29.94- 67.8 69.8----
2024-03-02 09:36 pm SE 8.0 8.9----29.94- 67.8 69.8----
2024-03-02 09:30 pm SE 8.0 9.9----29.93- 67.8 69.8----
2024-03-02 09:24 pm SE 8.0 9.9----29.93- 68.0 69.8----
2024-03-02 09:18 pm SE 9.9 11.1----29.93- 68.0 69.8----
2024-03-02 09:12 pm SE 9.9 11.1----29.93- 68.0 69.8----
2024-03-02 09:06 pm SE 8.0 8.9----29.93- 68.0 69.8----
2024-03-02 09:00 pm SE 8.0 8.9----29.94+0.02 68.0 69.8----
2024-03-02 08:54 pm SE 7.0 8.9----29.94- 67.8 69.8----
2024-03-02 08:48 pm SE 8.0 8.9----29.94- 67.8 69.8----
2024-03-02 08:42 pm SE 8.0 9.9----29.94- 67.6 69.8----
2024-03-02 08:36 pm SE 8.0 9.9----29.93- 67.8 69.8----
2024-03-02 08:30 pm SE 8.9 12.0----29.94- 67.8 69.8----
2024-03-02 08:24 pm SE 8.9 12.0----29.93- 68.0 69.8----
2024-03-02 08:18 pmESE 9.9 11.1----29.93- 68.0 69.4----
2024-03-02 08:12 pm SE 8.9 11.1----29.93- 68.0 69.4----
2024-03-02 08:06 pmESE 8.9 11.1----29.93- 67.8 69.3----
2024-03-02 08:00 pmESE 7.0 8.9----29.93+0.01 67.6 69.1----
2024-03-02 07:54 pmESE 7.0 8.9----29.93- 67.6 69.1----
2024-03-02 07:48 pmESE 7.0 8.9----29.93- 67.6 69.1----
2024-03-02 07:42 pmESE 7.0 8.9----29.93- 67.6 69.1----
2024-03-02 07:36 pmESE 8.9 9.9----29.93- 67.6 69.3----
2024-03-02 07:30 pmESE 8.9 9.9----29.92- 67.8 69.3----
2024-03-02 07:24 pmESE 8.0 11.1----29.92- 68.0 69.3----
2024-03-02 07:18 pmESE 8.9 9.9----29.92- 67.8 69.3----
2024-03-02 07:12 pm E 8.0 9.9----29.92- 67.8 69.3----
2024-03-02 07:06 pm E 8.0 9.9----29.92- 67.6 69.4----
2024-03-02 07:00 pm E 8.0 9.9----29.92-0.01 67.6 69.6----
2024-03-02 06:54 pm E 8.0 9.9----29.92- 67.6 69.6----
2024-03-02 06:48 pm E 8.0 9.9----29.92- 67.8 69.8----
2024-03-02 06:42 pm E 8.0 9.9----29.92- 67.8 70.0----
2024-03-02 06:36 pm E 7.0 9.9----29.93- 67.6 70.0----
2024-03-02 06:30 pm E 8.0 11.1----29.93- 67.8 70.0----
2024-03-02 06:24 pm E 8.9 12.0----29.92- 67.8 70.0----
2024-03-02 06:18 pm E 8.9 11.1----29.92- 68.2 69.8----
2024-03-02 06:12 pm E 8.9 12.0----29.92- 68.2 69.8----
2024-03-02 06:06 pm E 9.9 12.0----29.92- 68.2 69.6----
2024-03-02 06:00 pm E 8.9 12.0----29.92-0.03 68.2 69.3----
2024-03-02 05:54 pm E 9.9 12.0----29.92- 68.0 68.9----
2024-03-02 05:48 pm E 8.0 12.0----29.92-- 68.7----
2024-03-02 05:42 pm E 8.9 12.0----29.92-- 68.5----
2024-03-02 05:36 pm E 8.9 11.1----29.93-- 68.5----
2024-03-02 05:30 pm E 8.9 11.1----29.93- 67.6 68.5----
2024-03-02 05:24 pm E 8.9 12.0----29.92- 67.6 68.5----
2024-03-02 05:18 pm E 8.9 11.1----29.93-- 68.4----
2024-03-02 05:12 pm E 9.9 13.0----29.93-- 68.4----
2024-03-02 05:06 pm E 8.9 12.0----29.92-- 68.2----
2024-03-02 05:00 pm E 9.9 12.0----29.92- 68.2 68.2----
2024-03-02 04:54 pm E 8.9 11.1----29.93- 68.2 68.4----
2024-03-02 04:48 pm E 8.9 11.1----29.93- 68.0 68.5----
2024-03-02 04:42 pm E 8.9 9.9----29.93- 68.0 68.7----
2024-03-02 04:36 pm E 8.0 11.1----29.93- 68.2 68.7----
2024-03-02 04:30 pm E 8.9 12.0----29.93-- 68.5----
2024-03-02 04:24 pm E 8.0 11.1----29.93-- 68.2----
2024-03-02 04:18 pm E 8.9 12.0----29.93-- 68.2----
2024-03-02 04:12 pm E 9.9 12.0----29.93-- 68.5----
2024-03-02 04:06 pm E 9.9 12.0----29.93-- 68.5----
2024-03-02 04:00 pm E 8.9 12.0----29.93-0.06 68.5 68.4----
2024-03-02 03:54 pm E 9.9 12.0----29.93- 68.7 68.2----